Flag for Ireland Weather past 2 weeks in Galway, Ireland

Now
52 °F

Scattered clouds.


Feels Like: 47 °F
Forecast: 49 / 59 °F
Wind: 15 mph from Northwest

Location: Shannon Airport

Current Time: May 25, 2015 at 9:20:24 PM

Latest Report: May 25, 2015 at 9:00 PM


Visibility: N/A

Pressure: 30.27 "Hg

Humidity: 82%

Dew point: 46 °F

Location of GalwayLocation

Historic Weather in Galway — Graph

°F

Galway temperature yesterday

Maximum temperature yesterday: 55 °F (at 12:00 AM)
Minimum temperature yesterday: 50 °F (at 5:00 AM)
Average temperature yesterday: 53 °F

Past Weeks' High & Low Weather Summary

 TemperatureHumidityPressure
High64 °F (May 23, 3:30 PM)100% (May 15, 4:30 PM)30.39 "Hg (May 15, 4:30 PM)
Low39 °F (May 13, 2:30 AM)36% (May 13, 7:00 PM)29.59 "Hg (May 14, 4:30 AM)
Average52 °F78%30.08 "Hg
* Reported May 10 8:00 PM — May 25 8:00 PM, Galway, Weather by CustomWeather, © 2015

Note: Actual official high and low records may vary slightly from our data, if they occured in-between our weather recording intervals... More about our weather records

Advertising

Galway weather history for previous 24 hours

 ConditionsComfort  
Time TempWeatherWind HumidityBarometerVisibility
8:00 PM
Mon, May 25
54 °FScattered clouds.13 mph77%30.27 "HgN/A
7:30 PM55 °FBroken clouds.14 mph77%30.27 "HgN/A
7:00 PM57 °FPartly sunny.14 mph72%30.24 "HgN/A
6:30 PM55 °FPartly sunny.15 mph77%30.24 "HgN/A
6:00 PM57 °FPartly sunny.16 mph77%30.24 "HgN/A
5:30 PM59 °FPartly sunny.14 mph72%30.24 "HgN/A
5:00 PM59 °FBroken clouds.14 mph77%30.24 "HgN/A
4:30 PM59 °FPartly sunny.14 mph72%30.24 "HgN/A
4:00 PM57 °FBroken clouds.14 mph72%30.24 "HgN/A
3:30 PM57 °FPartly sunny.15 mph72%30.24 "HgN/A
3:00 PM57 °FPartly sunny.15 mph77%30.24 "HgN/A
2:30 PM55 °FBroken clouds.14 mph77%30.24 "HgN/A
2:00 PM55 °FBroken clouds.15 mph77%30.24 "HgN/A
1:30 PM57 °FBroken clouds.14 mph72%30.21 "HgN/A
1:00 PM57 °FBroken clouds.17 mph72%30.21 "HgN/A
12:30 PM54 °FBroken clouds.14 mph77%30.21 "HgN/A
12:00 PM54 °FBroken clouds.15 mph82%30.21 "HgN/A
11:30 AM54 °FBroken clouds.15 mph82%30.21 "HgN/A
11:00 AM54 °FBroken clouds.12 mph82%30.18 "HgN/A
10:30 AM55 °FPartly sunny.16 mph82%30.18 "HgN/A
10:00 AM55 °FBroken clouds.15 mph88%30.18 "HgN/A
9:30 AM54 °FDrizzle. Partly sunny.14 mph94%30.18 "HgN/A
9:00 AM55 °FDrizzle. Partly sunny.14 mph94%30.15 "Hg4 mi
8:30 AM55 °FPartly sunny.14 mph88%30.15 "HgN/A
8:00 AM55 °FPartly sunny.14 mph94%30.15 "Hg6 mi
7:30 AM54 °FDrizzle. Mostly cloudy.9 mph94%30.15 "Hg4 mi
7:00 AM54 °FDrizzle. Partly sunny.10 mph94%30.15 "HgN/A
6:30 AM52 °FDrizzle. Broken clouds.8 mph100%30.15 "Hg3 mi
6:00 AM52 °FPartly cloudy.9 mph94%30.18 "Hg3 mi
5:30 AM52 °FPartly cloudy.12 mph94%30.18 "Hg3 mi
5:00 AM50 °FPartly cloudy.7 mph100%30.18 "Hg3 mi
4:30 AM50 °FPartly cloudy.18 mph94%30.18 "Hg3 mi
4:00 AM50 °FPassing clouds.8 mph94%30.18 "Hg4 mi
3:30 AM50 °FPartly cloudy.13 mph94%30.18 "HgN/A
3:00 AM50 °FPassing clouds.12 mph94%30.21 "Hg4 mi
2:30 AM50 °FPassing clouds.12 mph88%30.21 "HgN/A
2:00 AM50 °FPartly cloudy.13 mph88%30.21 "HgN/A
1:30 AM50 °FPartly cloudy.10 mph82%30.21 "HgN/A
1:00 AM50 °FPartly cloudy.10 mph82%30.24 "HgN/A
12:30 AM50 °FPartly cloudy.8 mph82%30.24 "HgN/A
12:00 AM50 °FPartly cloudy.8 mph82%30.24 "HgN/A
11:30 PM
Sun, May 24
50 °FPassing clouds.12 mph82%30.24 "HgN/A
11:00 PM50 °FPassing clouds.9 mph76%30.24 "HgN/A
10:30 PM50 °FPartly sunny.7 mph76%30.24 "HgN/A
10:00 PM50 °FPartly sunny.10 mph76%30.24 "HgN/A
9:30 PM50 °FPartly sunny.9 mph76%30.24 "HgN/A
9:00 PM52 °FPartly sunny.13 mph72%30.24 "HgN/A
Weather by CustomWeather, © 2015

See weather overviewHow to use our weather pages